Flag for U.S.A. Weather past 2 weeks in Freehold, New Jersey, U.S.A.

Now
37 °F

Clear.


Feels Like: 33 °F
Forecast: 33 / 43 °F
Wind: 6 mph from Northwest

Location: Belmar-Farmdale

Current Time: Dec 29, 2014 at 6:44:32 AM

Latest Report: Dec 29, 2014 at 6:15 AM


Visibility: 10 mi

Pressure: 30.16 "Hg

Humidity: 52%

Dew point: 21 °F

Location of FreeholdLocation

Historic Weather in Freehold — Graph

°F

Freehold temperature yesterday

Maximum temperature yesterday: 54 °F (at 12:35 PM)
Minimum temperature yesterday: 41 °F (at 12:35 AM)
Average temperature yesterday: 47 °F

Past Weeks' High & Low Weather Summary

 TemperatureHumidityPressure
High63 °F (Dec 25, 12:55 AM)94% (Dec 24, 2:55 PM)30.33 "Hg (Dec 24, 2:55 PM)
Low30 °F (Dec 15, 1:35 AM)41% (Dec 25, 1:15 PM)29.53 "Hg (Dec 25, 3:35 AM)
Average42 °F66%30.05 "Hg
* Reported Dec 14 5:15 AM — Dec 29 5:35 AM, Freehold, Weather by CustomWeather, © 2014

Note: Actual official high and low records may vary slightly from our data, if they occured in-between our weather recording intervals... More about our weather records

Advertising

Freehold weather history for previous 24 hours

 ConditionsComfort  
Time TempWeatherWind HumidityBarometerVisibility
5:35 AM
Dec 29
39 °FClear.8 mph48%30.14 "Hg10 mi
5:15 AM39 °FClear.8 mph48%30.14 "Hg10 mi
4:55 AM39 °FClear.5 mph48%30.13 "Hg10 mi
4:35 AM39 °FClear.8 mph48%30.13 "Hg10 mi
4:15 AM39 °FClear.13 mph48%30.12 "Hg10 mi
3:55 AM39 °FPassing clouds.13 mph52%30.12 "Hg10 mi
3:35 AM41 °FPassing clouds.9 mph53%30.12 "Hg10 mi
3:15 AM41 °FPassing clouds.9 mph57%30.12 "Hg10 mi
2:55 AM41 °FPassing clouds.13 mph57%30.12 "Hg10 mi
2:35 AM43 °FPassing clouds.9 mph53%30.11 "Hg10 mi
2:15 AM43 °FMostly cloudy.12 mph53%30.11 "Hg10 mi
1:55 AM43 °FMostly cloudy.12 mph57%30.11 "Hg10 mi
1:35 AM43 °FMostly cloudy.13 mph57%30.10 "Hg10 mi
1:15 AM43 °FOvercast.10 mph57%30.08 "Hg10 mi
12:55 AM43 °FOvercast.10 mph57%30.08 "Hg10 mi
12:35 AM45 °FOvercast.9 mph57%30.08 "Hg10 mi
12:15 AM45 °FOvercast.13 mph57%30.07 "Hg10 mi
11:55 PM
Dec 28
45 °FMostly cloudy.10 mph57%30.06 "Hg10 mi
11:35 PM46 °FOvercast.12 mph53%30.06 "Hg10 mi
11:15 PM46 °FOvercast.8 mph57%30.05 "Hg10 mi
10:55 PM46 °FOvercast.9 mph62%30.06 "Hg10 mi
10:35 PM46 °FMostly cloudy.7 mph66%30.05 "Hg10 mi
10:15 PM46 °FMostly cloudy.9 mph66%30.03 "Hg10 mi
9:55 PM46 °FOvercast.6 mph66%30.03 "Hg10 mi
9:35 PM46 °FOvercast.8 mph66%30.03 "Hg10 mi
9:15 PM48 °FMostly cloudy.9 mph66%30.02 "Hg10 mi
8:55 PM48 °FPartly cloudy.3 mph71%30.01 "Hg10 mi
8:35 PM48 °FPassing clouds.5 mph71%30.00 "Hg10 mi
8:15 PM50 °FMostly cloudy.5 mph67%29.99 "Hg10 mi
7:55 PM50 °FOvercast.3 mph67%29.98 "Hg10 mi
7:35 PM50 °FOvercast.7 mph67%29.99 "Hg10 mi
7:15 PM52 °FOvercast.5 mph62%29.99 "Hg10 mi
6:55 PM52 °FOvercast.6 mph62%29.99 "Hg10 mi
6:35 PM52 °FMostly cloudy.8 mph62%29.98 "Hg10 mi
6:15 PM52 °FOvercast.7 mph62%29.98 "Hg10 mi
5:55 PM52 °FOvercast.6 mph62%29.97 "Hg10 mi
5:35 PM52 °FOvercast.6 mph62%29.96 "Hg10 mi
5:15 PM52 °FOvercast.5 mph62%29.95 "Hg10 mi
4:35 PM54 °FPartly sunny.5 mph58%29.95 "Hg10 mi
3:55 PM54 °FSunny.7 mph58%29.94 "Hg10 mi
3:35 PM54 °FSunny.6 mph58%29.93 "Hg10 mi
3:15 PM54 °FSunny.8 mph58%29.92 "Hg10 mi
2:55 PM54 °FSunny.9 mph58%29.91 "Hg10 mi
2:35 PM54 °FSunny.8 mph58%29.91 "Hg10 mi
2:15 PM54 °FPassing clouds.8 mph63%29.90 "Hg10 mi
1:55 PM54 °FBroken clouds.9 mph58%29.90 "Hg10 mi
1:35 PM54 °FBroken clouds.12 mph58%29.90 "Hg10 mi
1:15 PM54 °FScattered clouds.9 mph58%29.90 "Hg10 mi
12:55 PM54 °FPartly sunny.8 mph58%29.90 "Hg10 mi
12:35 PM54 °FMostly cloudy.12 mph58%29.91 "Hg10 mi
12:15 PM52 °FMostly cloudy.8 mph62%29.90 "Hg10 mi
11:55 AM52 °FMostly cloudy.7 mph62%29.91 "Hg10 mi
11:35 AM50 °FOvercast.8 mph67%29.91 "Hg10 mi
11:15 AM48 °FMostly cloudy.7 mph71%29.91 "Hg10 mi
10:55 AM46 °FOvercast.7 mph76%29.93 "Hg10 mi
10:35 AM46 °FOvercast.8 mph76%29.94 "Hg10 mi
10:15 AM46 °FOvercast.7 mph76%29.93 "Hg10 mi
9:55 AM46 °FMore clouds than sun.6 mph71%29.94 "Hg10 mi
9:35 AM46 °FMore clouds than sun.8 mph71%29.94 "Hg10 mi
9:15 AM46 °FOvercast.7 mph66%29.92 "Hg10 mi
8:55 AM45 °FOvercast.6 mph71%29.93 "Hg10 mi
8:35 AM45 °FMostly cloudy.3 mph71%29.92 "Hg10 mi
8:15 AM45 °FOvercast.5 mph71%29.93 "Hg10 mi
7:55 AM45 °FOvercast.No wind71%29.92 "Hg10 mi
7:35 AM45 °FOvercast.6 mph71%29.92 "Hg10 mi
7:15 AM45 °FMostly cloudy.7 mph71%29.92 "Hg10 mi
6:55 AM45 °FMostly cloudy.6 mph71%29.92 "Hg10 mi
6:35 AM45 °FOvercast.6 mph71%29.93 "Hg10 mi
6:15 AM45 °FOvercast.5 mph66%29.92 "Hg10 mi
Weather by CustomWeather, © 2014

See weather overviewHow to use our weather pages